Volver al catálogo

ONEWEB-0087

ActivoComunicacionesPO
NORAD 45451·PAYLOAD·🇬🇧 United Kingdom

Lanzado Mar 21, 2020 desde Baikonur Cosmodrome

Loading…

Próximos Pases (próximas 24 horas)

TLE

ActualizadoSource: CelesTrak SupGP

Época: Sep 14, 2026, 20:29 UTC

1 45451C 20020AD  26257.85366157 -.00000147  00000+0 -41545-3 0  2578
2 45451  87.8970   3.2266 0002092  99.8191 359.7565 13.11415720    15

Sigue ONEWEB-0087 en tiempo real con AllMySat

Download on the App Store